Time,TemperatureF,DewpointF,PressureIn,WindDirection,WindDirectionDegrees,WindSpeedMPH,WindSpeedGustMPH,Humidity,HourlyPrecipIn,Conditions,Clouds,dailyrainin,SoftwareType,DateUTC
2014-09-20 00:12:00,57.0,44.0,29.85,ESE,104,0.0,0.0,62,0.00,,,0.00,,2014-09-20 06:12:00,
2014-09-20 00:22:00,57.0,45.0,29.86,ESE,104,0.0,3.0,64,0.00,,,0.00,,2014-09-20 06:22:00,
2014-09-20 00:43:00,57.0,46.0,29.86,ESE,104,0.0,1.0,66,0.00,,,0.00,,2014-09-20 06:43:00,
2014-09-20 00:53:00,56.0,45.0,29.87,ESE,104,0.0,1.0,66,0.00,,,0.00,,2014-09-20 06:53:00,
2014-09-20 01:23:00,55.0,45.0,29.88,ESE,104,0.0,0.0,70,0.00,,,0.00,,2014-09-20 07:23:00,
2014-09-20 01:42:00,54.0,45.0,29.88,ESE,104,0.0,0.0,71,0.00,,,0.00,,2014-09-20 07:42:00,
2014-09-20 01:53:00,54.0,46.0,29.89,ESE,104,0.0,0.0,73,0.00,,,0.00,,2014-09-20 07:53:00,
2014-09-20 02:12:00,54.0,46.0,29.89,ESE,104,0.0,0.0,73,0.00,,,0.00,,2014-09-20 08:12:00,
2014-09-20 02:22:00,53.0,45.0,29.90,ESE,104,0.0,0.0,73,0.00,,,0.00,,2014-09-20 08:22:00,
2014-09-20 02:42:00,53.0,45.0,29.90,ESE,104,0.0,0.0,75,0.00,,,0.00,,2014-09-20 08:42:00,
2014-09-20 02:52:00,52.0,45.0,29.91,ESE,104,0.0,0.0,76,0.00,,,0.00,,2014-09-20 08:52:00,
2014-09-20 03:22:00,51.0,44.0,29.91,ESE,104,0.0,0.0,78,0.00,,,0.00,,2014-09-20 09:22:00,
2014-09-20 03:44:00,51.0,45.0,29.91,ESE,104,0.0,0.0,79,0.00,,,0.00,,2014-09-20 09:44:00,
2014-09-20 03:54:00,50.0,44.0,29.91,ESE,104,0.0,1.0,80,0.00,,,0.00,,2014-09-20 09:54:00,
2014-09-20 04:13:00,50.0,44.0,29.92,ESE,104,0.0,1.0,80,0.00,,,0.00,,2014-09-20 10:13:00,
2014-09-20 04:24:00,50.0,44.0,29.92,ESE,104,0.0,3.0,81,0.00,,,0.00,,2014-09-20 10:24:00,
2014-09-20 04:43:00,50.0,44.0,29.92,ESE,105,0.0,4.0,81,0.00,,,0.00,,2014-09-20 10:43:00,
2014-09-20 04:54:00,50.0,44.0,29.92,ESE,105,0.0,1.0,81,0.00,,,0.00,,2014-09-20 10:54:00,
2014-09-20 05:23:00,50.0,44.0,29.93,ESE,105,0.0,1.0,81,0.00,,,0.00,,2014-09-20 11:23:00,
2014-09-20 05:43:00,50.0,44.0,29.93,ESE,105,0.0,0.0,81,0.00,,,0.00,,2014-09-20 11:43:00,
2014-09-20 05:52:00,49.0,44.0,29.94,ESE,105,0.0,1.0,82,0.00,,,0.00,,2014-09-20 11:52:00,
2014-09-20 06:22:00,48.0,43.0,29.95,ESE,105,0.0,2.0,84,0.00,,,0.00,,2014-09-20 12:22:00,
2014-09-20 06:52:00,48.0,44.0,29.96,ESE,105,0.0,2.0,85,0.00,,,0.00,,2014-09-20 12:52:00,
2014-09-20 07:12:00,48.0,43.0,29.97,ESE,105,0.0,3.0,84,0.00,,,0.00,,2014-09-20 13:12:00,
2014-09-20 07:22:00,48.0,43.0,29.97,ESE,105,0.0,4.0,84,0.00,,,0.00,,2014-09-20 13:22:00,
2014-09-20 07:42:00,49.0,44.0,29.98,ESE,105,0.0,2.0,83,0.00,,,0.00,,2014-09-20 13:42:00,
2014-09-20 07:52:00,49.0,44.0,29.99,ESE,105,0.0,0.0,83,0.00,,,0.00,,2014-09-20 13:52:00,
2014-09-20 08:12:00,49.0,45.0,30.00,ESE,105,0.0,0.0,85,0.00,,,0.00,,2014-09-20 14:12:00,
2014-09-20 08:22:00,50.0,46.0,30.00,ESE,105,0.0,0.0,86,0.00,,,0.00,,2014-09-20 14:22:00,
2014-09-20 08:43:00,53.0,47.0,30.01,NNW,340,2.0,6.0,79,0.00,,,0.00,,2014-09-20 14:43:00,
2014-09-20 08:52:00,57.0,47.0,30.03,NNW,341,5.0,9.0,70,0.00,,,0.00,,2014-09-20 14:52:00,
2014-09-20 09:12:00,59.0,48.0,30.03,NNW,331,2.0,11.0,67,0.00,,,0.00,,2014-09-20 15:12:00,
2014-09-20 09:22:00,60.0,49.0,30.03,NNW,330,3.0,8.0,67,0.00,,,0.00,,2014-09-20 15:22:00,
2014-09-20 09:44:00,61.0,50.0,30.04,NNW,348,4.0,8.0,67,0.00,,,0.00,,2014-09-20 15:44:00,
2014-09-20 09:54:00,61.0,50.0,30.04,NNW,327,3.0,8.0,67,0.00,,,0.00,,2014-09-20 15:54:00,
2014-09-20 10:23:00,63.0,51.0,30.05,NNW,330,2.0,5.0,64,0.00,,,0.00,,2014-09-20 16:23:00,
2014-09-20 10:44:00,64.0,51.0,30.05,NNW,333,2.0,6.0,62,0.00,,,0.00,,2014-09-20 16:44:00,
2014-09-20 10:54:00,65.0,51.0,30.05,NNW,331,3.0,6.0,60,0.00,,,0.00,,2014-09-20 16:54:00,
2014-09-20 11:23:00,67.0,51.0,30.05,NW,317,2.0,5.0,57,0.00,,,0.00,,2014-09-20 17:23:00,
2014-09-20 11:43:00,68.0,52.0,30.05,NNW,330,2.0,4.0,56,0.00,,,0.00,,2014-09-20 17:43:00,
2014-09-20 11:53:00,69.0,52.0,30.05,NNW,335,0.0,4.0,55,0.00,,,0.00,,2014-09-20 17:53:00,
2014-09-20 12:22:00,70.0,51.0,30.04,NNW,329,0.0,5.0,51,0.00,,,0.00,,2014-09-20 18:22:00,
2014-09-20 12:42:00,71.0,51.0,30.04,NNW,336,1.0,4.0,49,0.00,,,0.00,,2014-09-20 18:42:00,
2014-09-20 12:52:00,72.0,51.0,30.03,NNW,339,0.0,4.0,48,0.00,,,0.00,,2014-09-20 18:52:00,
2014-09-20 13:12:00,74.0,51.0,30.03,NNW,338,2.0,8.0,45,0.00,,,0.00,,2014-09-20 19:12:00,
2014-09-20 13:22:00,75.0,50.0,30.03,NNW,342,2.0,5.0,42,0.00,,,0.00,,2014-09-20 19:22:00,
2014-09-20 13:42:00,76.0,51.0,30.03,NNW,340,2.0,5.0,41,0.00,,,0.00,,2014-09-20 19:42:00,
2014-09-20 13:53:00,76.0,51.0,30.03,NNW,332,0.0,5.0,42,0.00,,,0.00,,2014-09-20 19:53:00,
2014-09-20 14:22:00,77.0,49.0,30.01,NNW,332,3.0,6.0,37,0.00,,,0.00,,2014-09-20 20:22:00,
2014-09-20 14:42:00,77.0,49.0,30.01,NNW,328,2.0,5.0,38,0.00,,,0.00,,2014-09-20 20:42:00,
2014-09-20 14:52:00,79.0,50.0,30.01,NNW,328,0.0,4.0,37,0.00,,,0.00,,2014-09-20 20:52:00,
2014-09-20 15:22:00,79.0,52.0,30.00,NNW,331,0.0,5.0,39,0.00,,,0.00,,2014-09-20 21:22:00,
2014-09-20 15:44:00,79.0,52.0,30.00,NNW,329,1.0,5.0,39,0.00,,,0.00,,2014-09-20 21:44:00,
2014-09-20 15:54:00,80.0,55.0,30.00,NNW,331,0.0,4.0,42,0.00,,,0.00,,2014-09-20 21:54:00,
2014-09-20 16:24:00,80.0,51.0,30.00,NNE,13,0.0,4.0,37,0.00,,,0.00,,2014-09-20 22:24:00,
2014-09-20 16:43:00,80.0,51.0,30.01,NW,325,1.0,6.0,36,0.00,,,0.00,,2014-09-20 22:43:00,
2014-09-20 16:53:00,79.0,50.0,30.01,NNW,327,2.0,5.0,36,0.00,,,0.00,,2014-09-20 22:53:00,
2014-09-20 17:23:00,77.0,49.0,30.02,NW,325,1.0,6.0,38,0.00,,,0.00,,2014-09-20 23:23:00,
2014-09-20 17:43:00,75.0,50.0,30.03,NNW,329,0.0,6.0,41,0.00,,,0.00,,2014-09-20 23:43:00,
2014-09-20 17:53:00,74.0,49.0,30.03,NNW,333,0.0,3.0,42,0.00,,,0.00,,2014-09-20 23:53:00,
2014-09-20 18:22:00,72.0,49.0,30.03,North,355,0.0,4.0,44,0.00,,,0.00,,2014-09-21 00:22:00,
2014-09-20 18:42:00,71.0,49.0,30.05,North,355,0.0,2.0,46,0.00,,,0.00,,2014-09-21 00:42:00,
2014-09-20 18:53:00,71.0,50.0,30.05,North,355,0.0,2.0,47,0.00,,,0.00,,2014-09-21 00:53:00,
2014-09-20 19:12:00,70.0,49.0,30.06,North,355,0.0,2.0,47,0.00,,,0.00,,2014-09-21 01:12:00,
2014-09-20 19:22:00,70.0,49.0,30.06,North,355,0.0,2.0,48,0.00,,,0.00,,2014-09-21 01:22:00,
2014-09-20 19:42:00,69.0,48.0,30.07,East,101,0.0,3.0,48,0.00,,,0.00,,2014-09-21 01:42:00,
2014-09-20 19:53:00,69.0,49.0,30.08,East,101,0.0,2.0,49,0.00,,,0.00,,2014-09-21 01:53:00,
2014-09-20 20:12:00,69.0,50.0,30.09,East,101,0.0,1.0,50,0.00,,,0.00,,2014-09-21 02:12:00,
2014-09-20 20:22:00,68.0,49.0,30.11,East,101,0.0,1.0,51,0.00,,,0.00,,2014-09-21 02:22:00,